Location: La Comballaz
(46.3780°N, 7.0817°E)
Time: 16:41:21
(UTC+00:00)

Envisat - Pass Details

Date: 09 December 2021
Orbit: 764 x 766 km, 98.2° (Epoch: 16 January)

Event Time Altitude Azimuth Distance (km) Brightness Sun altitude
Rises 04:05:19 0° 19° (NNE) 3,243 6.4 -29.7°
Reaches altitude 10° 04:07:44 10° 25° (NNE) 2,312 5.7 -29.2°
Maximum altitude 04:12:37 45° 98° (E) 1,041 4.0 -28.4°
Drops below altitude 10° 04:17:27 10° 171° (S) 2,294 5.6 -27.6°
Sets 04:19:50 0° 178° (S) 3,216 6.3 -27.2°
